Regional Weather Roundup
Issued by NWS

Home | Current Version | Previous Version | Graphics & Text | Print | Product List | Glossary Off
Versions: 1 2 3 4 5 6 7 8 9 10 11 12 13 14 15 16 17 18 19 20 21 22 23 24 25 26 27 28 29 30 31 32 33 34 35 36 37 38 39 40 41 42 43 44 45 46 47 48 49 50

458
ASUS43 KDTX 220801
RWRMI
MICHIGAN HOURLY REGIONAL WEATHER ROUNDUP
NATIONAL WEATHER SERVICE DETROIT/PONTIAC MI
400 AM EDT FRI SEP 22 2017

NOTE: "FAIR" INDICATES FEW OR NO CLOUDS BELOW 12,000 FEET WITH NO
SIGNIFICANT WEATHER AND/OR OBSTRUCTION TO VISIBILITY.

MIZ047>049-052>055-059>063-066>070-074>076-081>083-220900-
SOUTHEAST LOWER MICHIGAN

CITY           SKY/WX    TMP DP  RH WIND       PRES   REMARKS
ADRIAN         PTCLDY    69  66  90 N6        30.11R FOG
ALMA           CLEAR     61  60  95 CALM      30.09S FOG
ANN ARBOR      CLEAR     63  63 100 CALM      30.10S FOG
BAD AXE        CLEAR     67  63  84 S5        30.11S
CARO           CLEAR     63  62  95 CALM      30.10S FOG
DETROIT CITY   CLEAR     69  66  90 CALM      30.10S
DETROIT        PTCLDY    70  65  84 CALM      30.10S
FLINT          CLEAR     64  62  93 CALM      30.10S
GROSSE ILE     CLEAR     68  64  89 CALM      30.08F
HILLSDALE      CLEAR     68  64  88 SE3       30.11R FOG
HOWELL         CLEAR     67  65  93 SE3       30.11S

CITY           SKY/WX    TMP DP  RH WIND       PRES   REMARKS
JACKSON        CLEAR     70  65  84 CALM      30.10S
LAMBERTVILLE   PTCLDY    70  67  92 CALM      30.09R FOG
LANSING        CLEAR     66  62  87 CALM      30.10S
LAPEER         FAIR      63  62  96 CALM      30.11S
MASON          CLEAR     70  66  89 SE7       30.10S
MONROE         CLEAR     69  66  90 N5        30.09R
MT. CLEMENS    PTCLDY    64  64 100 CALM      30.09S
PONTIAC        CLEAR     66  65  96 CALM      30.10S
PORT HOPE        N/A     70  62  76 S6        30.08S
PORT HURON       N/A     63  63 100 CALM      30.11S FOG
TRI CITIES     CLEAR     66  62  87 S5        30.10R
MIDLAND        FAIR      63  63 100 CALM      30.08S FOG
TROY           CLEAR     69  64  85 CALM      30.13R
SAGINAW HB     CLEAR     61  59  94 CALM      30.09S
$$
MIZ043>046-050>051-056>058-064>065-071>073-077>080-220900-
SOUTHWEST LOWER MICHIGAN

CITY           SKY/WX    TMP DP  RH WIND       PRES   REMARKS
BATTLE CREEK   CLEAR     68  65  90 S5        30.09S
BENTON HARBOR  CLEAR     72  67  84 SE3       30.05S
BIG RAPIDS     CLEAR     63  61  94 CALM      30.07S
COLDWATER      CLEAR     70  69  98 SE6       30.09S
FREMONT        FAIR      68  65  89 SE3       30.05S
HOLLAND        CLEAR     69  64  84 CALM      30.06S
GRAND RAPIDS   CLEAR     67  64  90 E6        30.07S
IONIA          FAIR      65  64  97 SE6       30.08S
KALAMAZOO      CLEAR     68  64  87 SE3       30.08S
LUDINGTON      CLEAR     64  62  94 SE3       30.03S
MARSHALL       CLEAR     64  64  98 CALM      30.09S
MOUNT PLEASANT CLEAR     66  64  91 CALM      30.08R
MUSKEGON       CLEAR     71  64  78 SE3       30.05S
SOUTH HAVEN    CLEAR     73  67  83 CALM      30.05S
$$
MIZ016>042-220900-
NORTHERN LOWER MICHIGAN

CITY           SKY/WX    TMP DP  RH WIND       PRES   REMARKS
ALPENA         PTCLDY    62  62 100 S3        30.07S
BEAVER ISLAND  CLEAR     66  66 100 SE3       30.02F
BELLAIRE       FOG       61  59  95 CALM      30.04F VSB 3/4
CADILLAC       CLEAR     63  59  88 CALM      30.08S
CHARLEVOIX     CLEAR     67  67 100 SE5       30.06S
FRANKFORT      CLEAR     67  67 100 CALM      30.03S
GAYLORD        MOCLDY    60  59  96 CALM      30.08S FOG
GRAYLING       FOG       62  60  96 CALM      30.10R VSB 3/4
HARBOR SPRINGS FOG       64  62  95 NE5       30.04S VSB 1/2
HOUGHTON LAKE  PTCLDY    64  63  96 CALM      30.09S
MANISTEE       CLEAR     64  63  96 E5        30.03S
OSCODA         CLEAR     66  66 100 CALM      30.07S
PELLSTON       FOG       59  59 100 CALM      30.05F VSB 1/4
ROGERS CITY    FOG       62  61  97 CALM      30.06S VSB 3/4
TRAVERSE CITY  CLEAR     66  64  93 CALM      30.02F
$$
MIZ007>008-015-220900-
EASTERN UPPER MICHIGAN

CITY           SKY/WX    TMP DP  RH WIND       PRES   REMARKS
KINROSS        FOG       63  62  97 SE6       30.05F VSB 1
MACKINAC ISLAN CLEAR     66  66 100 SE6       30.04F FOG
NEWBERRY       CLEAR     63  62  97 SE6       30.03S FOG
S. S. MARIE    FOG       65  63  93 CALM      30.04S VSB 1/4
MUNISING         N/A     66  66 100 S8        29.99S
$$
MIZ004>006-011>014-085-220900-
CENTRAL UPPER MICHIGAN

CITY           SKY/WX    TMP DP  RH WIND       PRES   REMARKS
MANISTIQUE     CLEAR     65  59  81 E5        30.01S
ESCANABA       FOG       62  62 100 CALM      30.00F VSB 1/4
MENOMINEE      CLEAR     66  65  96 S3        30.00S
SAWYER-GWINN   DRZL/FOG  64  63  98 SW9       30.01S VSB 1/4
$$
MIZ001>003-009>011-084-220900-
WESTERN UPPER MICHIGAN

CITY           SKY/WX    TMP DP  RH WIND       PRES   REMARKS
IRON MOUNTAIN  CLOUDY    65  63  93 SE6       29.99F FOG
HOUGHTON       CLOUDY    60  58  92 E6        29.93F
COPPER HARBOR    N/A     64  61  90 SW9G17    29.92F
IRONWOOD       CLEAR     71  65  81 S10G18    29.91F
$$

ABBREVIATIONS USED IN REMARKS
   TC - TEMPERATURE IN CELSIUS
  WCI - WIND CHILL INDEX
   HX - HEAT INDEX
  VSB - VISIBILITY





USA.gov is the U.S. government's official web portal to all federal, state and local government web resources and services.